Weather History for KLJF - July, 2012

Change the Weather History Date:

Tuesday, July 24, 2012

  Actual Average Record
Temperature  
Mean Temperature 73 °F -  
Max Temperature 80 °F 83 °F 95 °F (1964)
Min Temperature 66 °F 61 °F 48 °F (1991)
Cooling Degree Days 8    
Growing Degree Days 23 (Base 50)    
Moisture  
Dew Point 73 °F    
Average Humidity 99    
Maximum Humidity 100    
Minimum Humidity 83    
Precipitation  
Precipitation 0.00 in - - ()
Sea Level Pressure  
Sea Level Pressure 29.91 in    
Wind  
Wind Speed 8 mph (East)    
Max Wind Speed 16 mph    
Max Gust Speed 23 mph    
Visibility 9 miles    
Events Rain , Thunderstorm    
Averages and records for this station are not official NWS values.
T = Trace of Precipitation, MM = Missing Value Source: NWS Daily Summary

Daily Weather History Graph

Daily Weather History Graph

Search for Another Location

Airport or City:

Trip Planner

Search our weather history database for the weather conditions in past years. The results will help you decide how hot, cold, wet, or windy it might be!

Date:

Astronomy

Jul. 24, 2012 Rise Set
Actual Time 5:54 AM CDT 8:53 PM CDT
Civil Twilight 5:19 AM CDT 9:28 PM CDT
Nautical Twilight 4:35 AM CDT 10:12 PM CDT
Astronomical Twilight 3:42 AM CDT 11:05 PM CDT
Moon 12:13 PM CDT (7/24) 11:20 PM CDT (7/24)
Length of Visible Light 16h 08m
Length of Day
14h 58m
Waxing Crescent, 32% of the Moon is Illuminated
Jul 24
Waxing Crescent
Jul 26
First Quarter
Aug 1
Full
Aug 9
Last Quarter
Aug 17
New

Hourly Weather History & Observations

Time (CDT) Temp. Heat Index Dew Point Humidity Pressure Visibility Wind Dir Wind Speed Gust Speed Precip Events Conditions
12:13 AM 71.6 °F - 66.2 °F 83% 29.98 in 7.0 mi NE 6.9 mph - N/A Rain , Thunderstorm Light Thunderstorms and Rain
12:33 AM 71.6 °F - 66.2 °F 83% 30.00 in 10.0 mi NNW 5.8 mph - N/A Rain , Thunderstorm Light Thunderstorms and Rain
12:53 AM 71.6 °F - 68.0 °F 88% 29.96 in 5.0 mi East 6.9 mph - N/A Rain , Thunderstorm Rain
1:13 AM 71.6 °F - 69.8 °F 94% 30.00 in 10.0 mi Calm Calm - N/A Rain , Thunderstorm Light Thunderstorms and Rain
1:33 AM 69.8 °F - 69.8 °F 100% 29.98 in 10.0 mi East 5.8 mph - N/A Rain , Thunderstorm Heavy Thunderstorms and Rain
1:53 AM 66.2 °F - 66.2 °F 100% 29.94 in 2.5 mi ENE 16.1 mph 23.0 mph N/A Rain , Thunderstorm Heavy Thunderstorms and Rain
2:13 AM 68.0 °F - 68.0 °F 100% 29.94 in 7.0 mi East 9.2 mph 23.0 mph N/A Rain , Thunderstorm Thunderstorms and Rain
2:33 AM 69.8 °F - 69.8 °F 100% 29.94 in 10.0 mi NE 11.5 mph - N/A Rain , Thunderstorm Light Thunderstorms and Rain
2:53 AM 69.8 °F - 69.8 °F 100% 29.94 in 10.0 mi East 6.9 mph - N/A Rain , Thunderstorm Light Thunderstorms and Rain
3:13 AM 69.8 °F - 69.8 °F 100% 29.94 in 10.0 mi East 10.4 mph - N/A Rain , Thunderstorm Light Thunderstorms and Rain
3:33 AM 69.8 °F - 69.8 °F 100% 29.95 in 10.0 mi SSE 5.8 mph - N/A Thunderstorm Mostly Cloudy
3:53 AM 69.8 °F - 69.8 °F 100% 29.98 in 7.0 mi North 3.5 mph - N/A Rain , Thunderstorm Light Thunderstorms and Rain
4:14 AM 69.8 °F - 69.8 °F 100% 29.95 in 7.0 mi East 6.9 mph - N/A Rain , Thunderstorm Light Thunderstorms and Rain
4:33 AM 69.8 °F - 69.8 °F 100% 29.97 in 7.0 mi NE 5.8 mph - N/A Rain , Thunderstorm Light Thunderstorms and Rain
4:53 AM 69.8 °F - 69.8 °F 100% 29.97 in 10.0 mi East 8.1 mph - N/A Thunderstorm Unknown
5:13 AM 69.8 °F - 69.8 °F 100% 29.97 in 10.0 mi ESE 3.5 mph - N/A Thunderstorm Unknown
5:33 AM 69.8 °F - 69.8 °F 100% 29.97 in 10.0 mi ESE 8.1 mph - N/A Thunderstorm Unknown
5:53 AM 69.8 °F - 69.8 °F 100% 29.98 in 10.0 mi East 8.1 mph - N/A Thunderstorm Overcast
6:13 AM 69.8 °F - 69.8 °F 100% 29.97 in 10.0 mi East 9.2 mph - N/A Rain Light Rain
6:33 AM 69.8 °F - 69.8 °F 100% 29.98 in 10.0 mi ESE 5.8 mph - N/A   Mostly Cloudy
6:53 AM 69.8 °F - 69.8 °F 100% 29.97 in 10.0 mi SE 8.1 mph - N/A Rain Light Rain
7:13 AM 69.8 °F - 69.8 °F 100% 29.97 in 10.0 mi East 6.9 mph - N/A   Drizzle
7:33 AM 69.8 °F - 69.8 °F 100% 29.97 in 7.0 mi East 6.9 mph - N/A Rain , Thunderstorm Light Thunderstorms and Rain
7:53 AM 69.8 °F - 69.8 °F 100% 29.98 in 10.0 mi ENE 4.6 mph - N/A Thunderstorm Scattered Clouds
8:13 AM 69.8 °F - 69.8 °F 100% 29.96 in 10.0 mi East 9.2 mph - N/A Thunderstorm Thunderstorm
8:33 AM 69.8 °F - 69.8 °F 100% 29.97 in 10.0 mi ENE 5.8 mph - N/A   Scattered Clouds
8:53 AM 69.8 °F - 69.8 °F 100% 29.98 in 7.0 mi East 3.5 mph - N/A Rain Light Rain
9:13 AM 69.8 °F - 69.8 °F 100% 29.99 in 10.0 mi East 4.6 mph - N/A Rain Light Rain
9:33 AM 71.6 °F - 71.6 °F 100% 29.96 in 10.0 mi ESE 10.4 mph - N/A Rain , Thunderstorm Light Thunderstorms and Rain
9:53 AM 69.8 °F - 69.8 °F 100% 29.90 in 7.0 mi East 15.0 mph 21.9 mph N/A   Drizzle
10:13 AM 71.6 °F - 71.6 °F 100% 29.93 in 10.0 mi SE 12.7 mph 17.3 mph N/A   Mostly Cloudy
10:33 AM 71.6 °F - 71.6 °F 100% 29.92 in 10.0 mi SE 11.5 mph - N/A   Scattered Clouds
10:53 AM 73.4 °F - 73.4 °F 100% 29.95 in 10.0 mi Calm Calm - N/A   Scattered Clouds
11:13 AM 73.4 °F - 73.4 °F 100% 29.92 in 10.0 mi SE 5.8 mph - N/A Rain Light Rain
11:33 AM 75.2 °F - 75.2 °F 100% 29.94 in 10.0 mi Calm Calm - N/A   Clear
11:53 AM 78.8 °F - 78.8 °F 100% 29.93 in 10.0 mi NE 6.9 mph - N/A   Scattered Clouds
12:13 PM 75.2 °F - 75.2 °F 100% 29.94 in 10.0 mi ENE 8.1 mph - N/A   Mostly Cloudy
12:33 PM 77.0 °F - 77.0 °F 100% 29.93 in 10.0 mi ENE 8.1 mph - N/A   Scattered Clouds
12:53 PM 78.8 °F - 78.8 °F 100% 29.93 in 10.0 mi ENE 8.1 mph - N/A   Clear
1:13 PM 80.6 °F 89.3 °F 80.6 °F 100% 29.92 in 10.0 mi East 10.4 mph - N/A   Scattered Clouds
1:33 PM 78.8 °F - 78.8 °F 100% 29.93 in 10.0 mi East 9.2 mph - N/A   Mostly Cloudy
1:53 PM 78.8 °F - 78.8 °F 100% 29.92 in 10.0 mi East 9.2 mph - N/A   Mostly Cloudy
2:13 PM 78.8 °F - 78.8 °F 100% 29.91 in 10.0 mi East 11.5 mph - N/A   Mostly Cloudy
2:33 PM 78.8 °F - 78.8 °F 100% 29.92 in 10.0 mi East 10.4 mph - N/A   Scattered Clouds
2:54 PM 78.8 °F - 78.8 °F 100% 29.90 in 10.0 mi ESE 13.8 mph - N/A   Scattered Clouds
3:13 PM 78.8 °F - 78.8 °F 100% 29.89 in 5.0 mi East 12.7 mph - N/A   Clear
3:33 PM 78.8 °F - 78.8 °F 100% 29.89 in 10.0 mi East 10.4 mph - N/A   Scattered Clouds
3:53 PM 78.8 °F - 78.8 °F 100% 29.88 in 10.0 mi East 11.5 mph - N/A   Scattered Clouds
4:13 PM 78.8 °F - 78.8 °F 100% 29.88 in 10.0 mi East 12.7 mph - N/A   Scattered Clouds
4:33 PM 78.8 °F - 78.8 °F 100% 29.89 in 10.0 mi East 13.8 mph - N/A   Scattered Clouds
4:53 PM 78.8 °F - 78.8 °F 100% 29.90 in 10.0 mi East 5.8 mph - N/A Rain Rain
5:13 PM 77.0 °F - 77.0 °F 100% 29.88 in 10.0 mi East 12.7 mph - N/A   Scattered Clouds
5:33 PM 77.0 °F - 77.0 °F 100% 29.88 in 10.0 mi East 8.1 mph - N/A   Clear
5:53 PM 75.2 °F - 75.2 °F 100% 29.87 in 10.0 mi ESE 9.2 mph - N/A Rain Light Rain
6:13 PM 75.2 °F - 75.2 °F 100% 29.84 in 10.0 mi ESE 13.8 mph - N/A   Light Drizzle
6:33 PM 75.2 °F - 75.2 °F 100% 29.83 in 10.0 mi ESE 15.0 mph - N/A Rain Light Rain
6:53 PM 75.2 °F - 75.2 °F 100% 29.83 in 10.0 mi ESE 12.7 mph - N/A   Clear
7:13 PM 75.2 °F - 75.2 °F 100% 29.83 in 10.0 mi East 9.2 mph - N/A   Clear
7:33 PM 75.2 °F - 75.2 °F 100% 29.83 in 10.0 mi East 6.9 mph - N/A   Scattered Clouds
7:53 PM 75.2 °F - 75.2 °F 100% 29.82 in 10.0 mi East 10.4 mph - N/A   Light Drizzle
8:13 PM 75.2 °F - 75.2 °F 100% 29.82 in 10.0 mi ESE 10.4 mph - N/A   Clear
8:33 PM 75.2 °F - 75.2 °F 100% 29.82 in 10.0 mi East 10.4 mph - N/A   Clear
8:53 PM 75.2 °F - 75.2 °F 100% 29.81 in 10.0 mi ESE 12.7 mph - N/A   Clear
9:13 PM 75.2 °F - 73.4 °F 94% 29.81 in 10.0 mi ESE 12.7 mph 16.1 mph N/A   Clear
9:53 PM 75.2 °F - 73.4 °F 94% 29.81 in 10.0 mi East 12.7 mph - N/A   Clear
10:17 PM 75.2 °F - 73.4 °F 94% 29.80 in 10.0 mi East 11.5 mph - N/A   Clear
10:33 PM 75.2 °F - 73.4 °F 94% 29.80 in 10.0 mi East 11.5 mph 16.1 mph N/A   Clear
10:53 PM 73.4 °F - 71.6 °F 94% 29.78 in 10.0 mi ESE 12.7 mph - N/A   Clear
10:59 PM 73.4 °F - 73.4 °F 100% 29.78 in 10.0 mi ESE 12.7 mph - N/A   Clear
11:33 PM 73.4 °F - 71.6 °F 94% 29.76 in 10.0 mi SE 11.5 mph - N/A   Clear
11:53 PM 73.4 °F - 71.6 °F 94% 29.76 in 10.0 mi ESE 12.7 mph - N/A   Clear